Weather History for Saint Paul Island, AK

Change the Weather History Date:

Saturday, January 26, 2013

  Actual Average Record
Temperature  
Mean Temperature 23 °F 24 °F  
Max Temperature 25 °F 28 °F 41 °F (1963)
Min Temperature 20 °F 20 °F -4 °F (1989)
Degree Days  
Heating Degree Days 42 41  
Month to date heating degree days 998 1033  
Since 1 July heating degree days 5851 5574  
Cooling Degree Days 0    
Month to date cooling degree days 0  
Year to date cooling degree days 0  
Moisture  
Dew Point 18 °F    
Average Humidity 0    
Maximum Humidity 0    
Minimum Humidity 0    
Precipitation  
Precipitation 0.01 in 0.05 in 0.33 in (2002)
Month to date precipitation 1.24 1.35  
Year to date precipitation 1.24 1.35  
Snow  
Snow 0.10 in 0.40 in 3.70 in (2007)
Month to date snowfall 10.8 10.7  
Since 1 July snowfall 24.1 33.1  
Snow Depth 5.00 in    
Sea Level Pressure  
Sea Level Pressure 30.07 in    
Wind  
Wind Speed 16 mph (ENE)    
Max Wind Speed 22 mph    
Max Gust Speed 25 mph    
Visibility 10 miles    
Events Snow    
T = Trace of Precipitation, MM = Missing Value Source: NWS Daily Summary

Daily Weather History Graph

Daily Weather History Graph

Search for Another Location

Airport:

Trip Planner

Search our weather history database for the weather conditions in past years. The results will help you decide how hot, cold, wet, or windy it might be!

Date:

Astronomy

Jan. 26, 2013 Rise Set
Actual Time 10:31 AM AKST 6:36 PM AKST
Civil Twilight 9:47 AM AKST 7:20 PM AKST
Nautical Twilight 8:59 AM AKST 8:07 PM AKST
Astronomical Twilight 8:14 AM AKST 8:53 PM AKST
Moon 6:57 PM AKST (1/26) 9:47 AM AKST (1/26)
Length of Visible Light 9h 33m
Length of Day
8h 05m
Full, 100% of the Moon is Illuminated
Jan 26
Full
Jan 26
Full
Feb 3
Last Quarter
Feb 9
New
Feb 17
First Quarter

Hourly Weather History & Observations

Time (AKST) Temp. Windchill Dew Point Humidity Pressure Visibility Wind Dir Wind Speed Gust Speed Precip Events Conditions
12:05 AM 23.0 °F 8.0 °F 19.4 °F 86% 29.98 in 3.0 mi East 20.7 mph - 0.01 in Snow Light Snow
12:53 AM 23.0 °F 8.7 °F 19.0 °F 85% 29.99 in 9.0 mi East 18.4 mph - 0.01 in   Overcast
1:22 AM 23.0 °F 8.3 °F 17.6 °F 80% 29.99 in 10.0 mi East 19.6 mph - 0.00 in   Overcast
1:41 AM 23.0 °F 8.3 °F 17.6 °F 80% 30.00 in 10.0 mi East 19.6 mph - 0.00 in   Overcast
1:53 AM 23.0 °F 9.2 °F 18.0 °F 81% 30.00 in 10.0 mi East 17.3 mph - 0.00 in   Overcast
3:00 AM 23.0 °F 8.7 °F 19.4 °F 86% 30.00 in 9.0 mi East 18.4 mph - 0.00 in Snow Light Snow
3:10 AM 23.0 °F 9.6 °F 19.4 °F 86% 30.00 in 10.0 mi East 16.1 mph - 0.00 in   Overcast
3:53 AM 23.0 °F 8.3 °F 18.0 °F 81% 30.00 in 10.0 mi East 19.6 mph - 0.00 in   Overcast
4:53 AM 23.0 °F 9.2 °F 18.0 °F 81% 30.01 in 10.0 mi East 17.3 mph - 0.00 in   Overcast
5:53 AM 23.0 °F 10.6 °F 18.0 °F 81% 30.02 in 10.0 mi East 13.8 mph - N/A   Overcast
6:53 AM 23.0 °F 10.1 °F 18.0 °F 81% 30.02 in 10.0 mi ENE 15.0 mph - N/A   Overcast
7:53 AM 23.0 °F 10.6 °F 18.0 °F 81% 30.03 in 10.0 mi East 13.8 mph - N/A   Overcast
8:53 AM 23.0 °F 9.2 °F 19.0 °F 85% 30.03 in 10.0 mi ENE 17.3 mph - N/A   Overcast
9:17 AM 23.0 °F 9.6 °F 19.4 °F 86% 30.02 in 10.0 mi ENE 16.1 mph - N/A   Overcast
9:53 AM 23.0 °F 9.6 °F 19.0 °F 85% 30.04 in 10.0 mi ENE 16.1 mph - N/A   Overcast
10:53 AM 24.1 °F 11.5 °F 19.0 °F 81% 30.05 in 10.0 mi ENE 15.0 mph - N/A   Overcast
11:53 AM 24.1 °F 11.5 °F 19.0 °F 81% 30.06 in 10.0 mi ENE 15.0 mph - N/A   Overcast
12:25 PM 24.8 °F 12.4 °F 19.4 °F 80% 30.07 in 10.0 mi ENE 15.0 mph - N/A   Overcast
12:53 PM 24.1 °F 10.1 °F 19.0 °F 81% 30.08 in 10.0 mi ENE 18.4 mph - N/A   Mostly Cloudy
1:53 PM 24.1 °F 11.5 °F 18.0 °F 77% 30.09 in 10.0 mi ENE 15.0 mph - N/A   Mostly Cloudy
2:53 PM 24.1 °F 13.1 °F 18.0 °F 77% 30.10 in 10.0 mi ENE 11.5 mph - N/A   Mostly Cloudy
3:53 PM 24.1 °F 12.5 °F 17.1 °F 75% 30.10 in 10.0 mi East 12.7 mph - N/A   Mostly Cloudy
4:53 PM 25.0 °F 13.6 °F 17.1 °F 72% 30.11 in 10.0 mi ENE 12.7 mph - N/A   Mostly Cloudy
5:53 PM 23.0 °F 10.1 °F 15.1 °F 72% 30.12 in 10.0 mi East 15.0 mph - N/A   Mostly Cloudy
6:53 PM 23.0 °F 9.6 °F 16.0 °F 74% 30.14 in 10.0 mi ENE 16.1 mph - N/A   Mostly Cloudy
7:53 PM 21.9 °F 9.8 °F 15.1 °F 75% 30.17 in 10.0 mi East 12.7 mph - N/A   Mostly Cloudy
8:53 PM 21.9 °F 8.2 °F 15.1 °F 75% 30.17 in 10.0 mi ENE 16.1 mph - N/A   Mostly Cloudy
9:53 PM 21.9 °F 9.2 °F 14.0 °F 72% 30.19 in 10.0 mi East 13.8 mph - N/A   Overcast
10:53 PM 21.0 °F 6.6 °F 14.0 °F 74% 30.19 in 10.0 mi East 17.3 mph - N/A   Overcast
11:53 PM 21.0 °F 7.1 °F 12.0 °F 68% 30.21 in 10.0 mi ENE 16.1 mph - N/A   Mostly Cloudy